Wind_Speed
54 54 54 55 55 55 55 55 55 55 55 54 53 52 52 51 50 50 50 50 49 50 50 51 51 50 49 49 48 47 46 46 47 46 46 45 43 43 45 47 48 49
54 54 55 55 55 56 55 55 55 55 54 54 53 52 52 52 51 50 51 51 50 51 52 53 53 51 49 49 48 45 43 45 46 45 45 43 41 41 42 43 45 47
54 54 55 55 56 56 55 55 55 55 55 54 53 53 52 52 52 52 51 51 51 52 52 53 54 52 49 48 47 43 40 43 45 45 44 42 40 40 41 41 40 41
53 54 55 56 56 56 56 56 56 56 55 55 54 53 53 52 52 52 52 52 52 52 53 54 54 53 50 48 46 41 38 41 44 45 44 41 39 40 41 41 40 40
52 53 55 56 56 56 56 56 56 56 56 55 55 54 53 53 53 53 53 52 53 53 53 55 55 53 51 49 46 41 37 39 43 44 43 40 36 36 39 41 40 39
52 53 54 56 57 57 57 56 56 56 56 56 55 55 54 53 53 53 53 53 53 53 53 54 55 53 51 49 46 41 37 39 43 43 41 39 36 33 35 38 39 37
51 52 53 55 56 57 57 57 57 56 56 56 55 55 54 54 54 53 53 53 53 53 53 54 54 52 51 49 46 42 37 39 44 45 42 41 39 35 33 35 38 39
51 52 53 53 55 57 58 58 57 57 57 56 56 56 55 55 54 54 54 54 53 52 53 54 53 51 50 49 46 41 38 38 43 46 43 42 41 38 35 36 38 40
52 52 52 53 54 55 57 58 58 57 57 57 56 56 56 55 54 54 54 54 53 52 53 54 52 50 49 48 45 41 38 39 43 44 42 40 40 40 39 39 40 40
52 52 52 52 53 54 55 57 57 57 57 57 56 56 56 55 54 54 54 54 53 52 52 53 52 49 48 46 43 39 39 41 43 43 41 41 40 41 42 42 41 40
53 53 53 53 53 54 54 56 57 57 57 57 56 56 56 56 55 55 54 54 53 51 51 52 51 48 47 45 40 38 41 43 45 44 43 44 43 44 45 45 44 43
55 54 54 54 54 54 54 55 56 57 57 57 57 56 56 56 55 55 54 54 53 51 50 51 50 47 45 45 39 38 43 45 46 46 45 46 45 46 47 47 48 47
56 55 55 54 54 54 55 55 56 56 57 57 57 57 57 57 56 55 54 54 53 51 50 50 50 46 42 43 38 39 46 47 49 49 47 46 46 46 47 48 50 51
57 56 56 55 55 55 55 55 56 56 57 57 57 58 57 57 57 56 55 54 53 51 50 49 49 46 41 40 38 42 49 50 52 52 50 50 49 49 48 48 49 51
58 57 56 56 56 56 56 56 56 56 56 57 57 58 58 58 58 57 57 55 53 51 50 48 48 46 41 39 38 44 53 53 55 56 54 53 54 53 52 51 50 49
58 57 57 57 56 56 56 56 57 57 57 57 57 58 58 58 58 57 57 56 54 52 51 49 47 46 42 38 38 45 55 56 56 58 56 55 56 57 56 55 54 52
59 58 58 58 58 58 57 57 58 58 58 58 58 58 58 58 58 58 57 56 55 53 51 49 47 45 43 39 38 43 56 59 59 60 59 57 57 59 59 59 58 56
60 60 60 59 59 59 59 59 59 59 59 59 59 59 59 59 59 58 58 57 56 54 52 51 48 46 44 41 38 42 54 62 62 63 63 60 59 60 61 61 60 57
61 61 61 61 61 60 60 60 59 60 60 60 61 61 61 60 60 59 59 58 57 56 54 52 50 48 46 44 41 41 51 62 64 64 65 64 62 63 63 63 61 58
63 63 62 62 62 61 61 61 61 61 61 62 62 62 62 62 61 61 60 60 59 57 56 54 52 50 48 47 44 42 48 60 66 66 67 67 65 65 65 65 64 60
63 64 64 64 63 63 63 63 63 63 63 63 64 64 63 63 63 63 62 61 60 59 58 56 54 52 50 48 47 45 47 58 68 68 67 68 68 67 67 67 66 64
64 64 64 65 64 64 64 64 64 64 64 65 65 65 65 65 65 65 64 63 63 61 60 58 56 55 52 50 50 49 48 55 67 71 69 68 69 69 69 69 69 68
65 65 65 65 65 66 66 66 66 67 67 67 67 68 68 67 67 67 66 66 65 64 63 61 59 57 56 53 52 52 51 54 64 72 72 70 70 70 71 72 72 72
66 66 66 67 67 68 68 69 69 70 70 70 70 71 71 71 71 70 70 69 68 67 66 65 63 60 59 57 55 55 55 55 61 71 76 74 72 72 72 73 74 74
67 68 69 69 70 70 71 71 72 72 73 73 73 73 74 74 74 74 73 72 71 70 69 68 66 64 62 60 58 57 58 58 60 68 75 78 76 75 74 75 75 76
69 70 71 72 73 73 74 74 75 75 76 76 76 76 76 76 77 77 76 75 74 73 72 70 69 68 65 63 61 59 60 61 62 66 73 79 80 79 78 77 77 78
Wind_Direction
264 263 263 264 266 268 270 271 273 274 277 279 281 283 285 286 287 288 289 291 294 296 297 297 296 294 291 288 282 277 271 262 253 247 241 242 244 244 242 242 244 246
266 264 263 263 265 267 268 270 271 273 274 276 279 281 282 283 285 286 288 290 293 295 297 298 298 296 294 291 286 279 271 260 250 241 238 240 243 242 241 243 244 245
268 266 264 263 264 265 267 268 270 271 273 275 277 278 280 281 283 285 287 290 293 295 297 298 299 298 296 293 288 279 269 257 245 235 233 236 239 241 241 240 241 241
269 268 266 265 264 265 266 268 269 270 272 274 276 277 279 280 283 285 287 289 292 294 297 298 299 299 298 294 289 280 266 253 240 232 231 233 237 242 240 236 238 240
271 270 268 266 265 265 266 267 269 270 271 273 275 276 278 280 282 284 286 289 291 294 296 298 299 300 299 295 290 280 264 247 235 231 231 229 234 243 240 235 238 243
272 271 270 268 267 266 266 267 269 270 272 273 275 276 278 280 282 284 285 287 290 293 295 297 299 300 299 295 290 281 262 242 231 228 229 228 231 237 237 235 237 242
273 272 271 269 268 267 267 268 269 271 272 273 275 277 278 280 281 282 284 286 289 292 294 296 298 300 298 295 291 280 260 239 228 226 228 230 230 229 230 234 237 241
273 273 272 271 269 268 268 268 269 271 272 274 275 276 277 279 280 281 283 285 288 291 293 295 297 299 297 295 291 278 257 237 226 224 227 229 228 224 225 233 237 238
273 273 272 271 270 269 268 268 268 270 271 273 274 276 277 278 279 280 282 284 288 290 292 293 296 297 295 294 291 275 252 232 222 222 224 225 225 223 226 234 236 237
273 273 272 272 271 270 269 268 268 269 270 272 273 275 276 277 278 279 281 284 287 289 291 292 294 296 294 294 288 268 245 227 217 217 220 221 222 224 228 234 235 236
273 273 273 273 272 271 271 269 269 269 270 271 272 274 275 276 277 278 280 282 285 287 289 290 293 295 293 293 285 258 237 223 214 214 216 218 220 224 228 232 232 234
274 274 274 274 273 273 272 271 270 270 270 271 272 272 274 275 276 277 279 281 283 285 287 288 290 292 292 292 280 247 229 221 214 214 217 218 221 223 227 231 232 233
275 276 275 275 274 274 273 272 272 271 270 271 271 272 273 274 275 276 277 279 281 283 285 286 288 289 289 290 276 239 225 221 217 216 218 219 221 223 226 230 232 234
277 277 277 276 276 275 274 274 273 272 271 271 272 272 273 274 275 276 276 278 279 281 283 284 286 287 285 287 272 237 223 223 219 218 219 220 222 224 226 229 232 235
278 278 278 277 277 276 276 275 274 273 272 272 272 272 273 273 274 275 276 277 278 280 282 282 283 285 283 284 270 238 223 223 223 221 222 222 223 225 227 229 232 235
279 279 279 278 278 277 277 276 276 275 274 273 273 273 273 274 274 275 276 278 278 279 280 280 281 283 280 280 271 242 225 223 225 224 224 225 225 226 227 228 231 234
280 280 280 280 280 279 279 278 277 277 276 276 275 275 275 275 276 276 277 278 279 279 279 279 279 280 278 276 271 248 229 224 226 226 225 227 228 228 229 229 231 234
282 282 282 282 281 281 280 280 279 279 278 278 277 277 277 277 277 277 277 278 278 278 278 278 277 278 277 273 269 253 235 227 226 227 227 228 229 230 231 231 232 233
283 283 283 283 282 282 282 281 280 280 279 279 278 278 278 277 277 277 277 277 277 277 277 277 276 275 275 272 267 256 240 229 227 228 228 228 230 231 232 233 233 233
284 284 284 283 283 283 283 282 281 281 280 280 279 279 278 278 277 277 277 276 276 276 275 275 274 273 272 270 266 258 243 231 227 228 229 229 231 232 232 233 233 233
284 284 284 284 284 284 284 283 283 282 281 281 280 279 279 278 278 277 277 276 275 275 274 274 273 271 269 267 264 258 247 233 227 228 230 231 231 232 232 233 233 234
284 285 285 285 285 284 284 284 283 282 282 281 280 280 279 278 278 277 276 276 275 274 273 272 271 269 267 265 262 258 250 237 229 228 230 231 232 233 233 233 233 234
285 285 285 285 285 284 284 283 282 281 281 280 279 279 278 277 277 276 275 275 274 273 272 270 269 268 265 263 261 257 253 242 232 229 229 230 231 232 233 234 234 235
286 286 285 285 284 284 283 282 282 281 281 280 279 279 278 277 276 276 275 274 273 272 271 270 268 266 264 261 259 256 253 247 237 231 229 230 230 231 232 233 234 236
286 285 285 284 284 283 282 282 281 281 280 279 279 278 278 277 277 276 275 274 273 271 270 269 268 266 263 260 257 254 251 248 242 234 230 230 230 231 231 231 232 234
286 285 285 285 284 283 283 282 281 281 280 279 279 278 277 277 276 275 275 274 273 271 270 269 267 265 263 260 256 252 248 246 244 239 233 231 230 230 231 231 231 231
Height
10681 10681 10681 10681 10681 10680 10680 10679 10678 10677 10676 10676 10676 10675 10673 10673 10673 10671 10668 10666 10665 10663 10661 10659 10657 10655 10653 10651 10649 10648 10647 10646 10647 10649 10650 10652 10654 10656 10656 10658 10659 10660
10673 10674 10674 10674 10674 10674 10674 10673 10672 10672 10671 10671 10671 10670 10668 10667 10666 10665 10663 10661 10660 10657 10655 10653 10651 10649 10647 10644 10642 10642 10640 10638 10640 10643 10644 10647 10649 10650 10651 10653 10654 10654
10665 10666 10667 10667 10667 10667 10667 10667 10666 10666 10665 10665 10665 10664 10663 10661 10660 10659 10658 10656 10654 10652 10649 10647 10644 10642 10640 10638 10635 10634 10633 10632 10634 10637 10638 10640 10644 10645 10646 10648 10649 10650
10659 10659 10659 10659 10660 10660 10660 10660 10660 10659 10658 10658 10658 10657 10657 10656 10654 10652 10651 10650 10648 10646 10643 10640 10638 10635 10633 10631 10628 10627 10627 10626 10627 10630 10632 10634 10638 10639 10640 10643 10644 10645
10652 10652 10652 10652 10652 10652 10653 10653 10652 10652 10652 10651 10651 10650 10650 10649 10648 10646 10645 10644 10642 10640 10638 10634 10631 10628 10626 10624 10621 10620 10620 10620 10622 10624 10626 10629 10633 10634 10635 10637 10638 10639
10645 10645 10644 10644 10644 10645 10645 10645 10645 10645 10644 10644 10643 10643 10643 10642 10642 10640 10639 10638 10636 10635 10632 10628 10625 10622 10619 10617 10614 10613 10614 10614 10616 10619 10621 10623 10626 10627 10629 10631 10632 10633
10639 10638 10637 10637 10637 10637 10638 10638 10638 10638 10637 10637 10636 10636 10636 10635 10635 10634 10633 10631 10630 10629 10626 10623 10620 10617 10613 10611 10608 10607 10607 10608 10611 10613 10615 10617 10618 10620 10623 10625 10626 10628
10632 10631 10630 10630 10630 10630 10630 10630 10631 10630 10629 10629 10628 10628 10628 10628 10628 10627 10626 10625 10624 10623 10620 10617 10615 10612 10608 10605 10602 10600 10601 10603 10605 10607 10609 10610 10612 10615 10617 10619 10620 10622
10624 10624 10623 10623 10623 10623 10623 10623 10623 10623 10622 10621 10621 10620 10620 10621 10620 10620 10619 10618 10617 10616 10613 10611 10609 10606 10602 10600 10597 10594 10595 10597 10599 10601 10603 10605 10607 10609 10612 10613 10615 10617
10617 10616 10616 10616 10616 10616 10615 10615 10615 10615 10614 10614 10613 10613 10613 10613 10613 10613 10612 10611 10611 10610 10607 10605 10603 10600 10597 10594 10591 10589 10590 10592 10594 10596 10597 10599 10601 10604 10606 10608 10609 10611
10610 10609 10609 10609 10608 10608 10608 10607 10607 10607 10607 10606 10606 10605 10605 10605 10605 10605 10605 10604 10604 10603 10601 10599 10596 10594 10591 10588 10586 10584 10585 10588 10589 10590 10592 10593 10595 10598 10600 10601 10603 10605
10602 10602 10602 10602 10601 10600 10600 10599 10599 10599 10599 10598 10598 10598 10597 10597 10598 10598 10597 10597 10597 10596 10595 10593 10590 10588 10585 10582 10580 10580 10581 10583 10584 10585 10586 10588 10590 10593 10595 10596 10597 10599
10594 10595 10595 10594 10593 10593 10592 10592 10591 10591 10591 10590 10590 10590 10589 10589 10590 10590 10590 10590 10589 10589 10589 10586 10584 10582 10580 10577 10575 10575 10576 10578 10579 10580 10581 10583 10585 10587 10588 10589 10591 10593
10587 10587 10587 10586 10586 10585 10585 10584 10583 10583 10583 10582 10582 10581 10581 10581 10581 10581 10582 10582 10582 10581 10581 10579 10577 10575 10574 10572 10570 10570 10572 10573 10574 10574 10576 10578 10580 10581 10582 10583 10585 10587
10579 10579 10578 10578 10577 10577 10576 10576 10575 10575 10574 10574 10574 10573 10573 10573 10573 10573 10573 10573 10574 10574 10573 10572 10570 10568 10568 10566 10565 10565 10566 10567 10568 10569 10570 10572 10574 10575 10576 10578 10580 10582
10571 10570 10570 10569 10569 10568 10568 10567 10567 10566 10566 10565 10565 10565 10564 10564 10564 10564 10564 10564 10565 10565 10565 10564 10563 10562 10561 10560 10559 10558 10560 10561 10562 10563 10564 10565 10567 10568 10570 10572 10574 10576
10562 10562 10561 10560 10560 10559 10559 10558 10558 10557 10557 10556 10556 10556 10556 10556 10555 10555 10555 10555 10556 10556 10556 10556 10555 10554 10553 10553 10553 10552 10553 10555 10556 10557 10558 10559 10560 10562 10564 10566 10567 10570
10554 10553 10552 10551 10550 10550 10550 10549 10549 10548 10547 10547 10547 10546 10546 10546 10546 10546 10546 10546 10546 10547 10547 10547 10547 10546 10546 10545 10545 10545 10545 10547 10548 10550 10551 10552 10553 10555 10557 10558 10561 10563
10545 10544 10542 10541 10541 10540 10540 10540 10539 10539 10538 10537 10536 10536 10536 10536 10536 10536 10536 10536 10537 10537 10538 10538 10538 10538 10537 10537 10537 10537 10537 10539 10541 10542 10543 10544 10546 10548 10550 10552 10554 10556
10536 10534 10533 10532 10531 10531 10530 10530 10530 10529 10528 10527 10526 10526 10526 10526 10526 10526 10526 10527 10527 10527 10528 10528 10529 10529 10529 10528 10528 10529 10529 10530 10532 10534 10535 10537 10539 10540 10543 10545 10546 10549
10527 10525 10524 10523 10522 10522 10521 10520 10520 10519 10518 10517 10516 10516 10516 10516 10515 10515 10516 10516 10516 10517 10518 10518 10519 10519 10519 10519 10519 10520 10521 10522 10524 10525 10527 10529 10531 10532 10535 10537 10539 10541
10518 10517 10515 10514 10513 10513 10512 10511 10510 10509 10508 10507 10505 10505 10505 10505 10504 10504 10504 10505 10505 10506 10507 10508 10508 10509 10509 10510 10510 10510 10511 10512 10514 10516 10518 10520 10522 10524 10526 10528 10530 10532
10509 10508 10507 10505 10504 10503 10502 10501 10500 10498 10497 10497 10495 10494 10493 10493 10493 10492 10493 10493 10493 10494 10495 10497 10498 10498 10499 10500 10500 10501 10501 10502 10504 10506 10508 10511 10513 10514 10516 10519 10521 10523
10500 10498 10497 10496 10494 10493 10492 10490 10489 10487 10486 10485 10484 10483 10482 10481 10480 10480 10480 10481 10481 10482 10483 10484 10485 10486 10487 10489 10489 10490 10491 10492 10493 10495 10498 10500 10502 10504 10506 10508 10511 10513
10490 10488 10487 10485 10484 10482 10481 10479 10478 10476 10474 10473 10472 10471 10470 10469 10467 10467 10467 10467 10468 10469 10470 10471 10472 10473 10475 10476 10478 10479 10480 10481 10482 10484 10486 10489 10492 10494 10495 10498 10501 10503
10480 10478 10476 10474 10472 10470 10469 10467 10465 10464 10462 10461 10459 10458 10457 10456 10454 10453 10453 10453 10453 10454 10456 10457 10458 10459 10461 10463 10465 10467 10468 10469 10470 10472 10474 10477 10480 10482 10485 10487 10489 10492